Vorticity
nan nan nan nan nan nan nan nan nan nan nan nan nan nan nan nan nan nan nan nan nan nan nan nan nan nan nan nan nan nan nan nan nan nan nan nan nan nan nan nan nan nan nan nan nan nan nan nan nan nan nan nan nan nan nan nan nan nan nan nan nan nan nan nan nan nan nan nan nan nan nan nan nan nan nan nan nan nan nan nan nan nan nan nan nan nan nan nan nan nan nan nan nan nan nan nan nan nan nan nan nan nan nan
nan 5 5 5 5 5 5 5 4 5 5 5 5 5 4 4 4 4 4 4 4 4 4 4 4 4 4 4 4 4 4 5 5 5 4 4 3 3 3 4 7 12 18 20 16 10 3 1 4 6 6 6 5 5 5 5 6 6 6 6 6 9 14 11 7 4 4 4 4 5 7 8 8 5 4 4 4 5 2 3 7 13 20 22 19 13 10 8 8 8 9 8 7 6 6 7 7 8 8 6 5 5 nan
nan 5 5 5 5 5 4 4 4 5 5 5 5 4 4 4 4 4 4 4 4 4 4 4 4 4 4 4 4 4 5 5 5 5 4 4 3 3 3 4 7 11 17 18 15 11 4 3 5 6 5 5 6 6 6 6 6 6 6 6 7 11 16 10 7 4 4 4 4 4 4 7 6 4 3 3 3 3 2 3 4 6 10 11 11 9 8 8 8 7 7 7 7 6 6 7 7 7 7 5 3 3 nan
nan 5 5 5 5 4 4 4 4 5 5 4 4 4 4 4 4 4 4 4 4 4 4 4 4 4 4 4 4 4 5 5 5 5 4 4 3 3 3 5 7 10 14 15 12 8 4 5 5 6 5 5 5 5 5 6 6 7 6 7 8 12 14 8 7 6 5 4 3 3 4 6 5 4 3 4 4 3 4 4 4 5 4 4 6 7 8 8 7 6 5 6 6 6 7 6 6 6 6 5 4 3 nan
nan 6 6 5 5 4 4 4 4 4 4 4 4 4 4 4 4 4 4 5 5 4 4 4 4 4 4 4 4 5 5 5 5 5 4 4 3 3 4 4 6 8 12 13 11 8 7 6 5 4 5 4 4 4 4 5 5 6 6 7 10 14 13 7 6 6 5 4 3 2 4 7 6 5 4 4 4 4 6 6 6 6 4 4 5 6 7 7 6 6 5 5 5 5 6 5 5 5 6 5 4 4 nan
nan 6 5 5 4 4 4 4 4 4 4 4 4 4 4 4 4 4 5 5 5 5 4 4 4 4 4 4 4 5 5 5 5 5 4 3 3 3 4 4 5 7 10 12 11 9 8 5 5 5 5 5 4 4 4 5 5 5 6 7 13 16 11 7 5 6 5 4 3 3 6 7 7 6 5 5 4 4 5 6 7 6 6 5 5 5 6 6 6 6 5 5 4 4 4 5 4 5 5 5 4 5 nan
nan 5 5 4 3 3 4 4 4 4 4 4 4 4 4 4 5 5 5 5 5 4 4 4 4 4 4 4 4 4 5 5 5 4 4 3 3 3 4 4 5 7 9 12 13 10 8 6 6 6 5 5 5 5 5 5 5 6 5 8 14 14 10 7 6 6 6 4 3 3 5 5 6 7 6 5 4 4 4 5 6 6 6 6 6 5 5 5 5 5 4 4 4 4 4 4 4 4 4 4 4 5 nan
nan 4 3 2 2 4 5 5 5 4 4 4 4 4 4 4 5 5 5 5 5 4 4 4 4 4 4 4 4 4 5 5 5 4 4 3 3 3 4 4 5 6 9 12 13 12 9 6 6 5 5 5 5 6 6 5 5 6 5 8 11 10 9 7 6 6 5 5 4 4 5 5 6 7 6 5 4 3 3 5 5 5 6 5 5 5 5 5 5 4 5 5 5 4 4 4 5 4 4 4 4 4 nan
nan 3 2 2 3 5 7 6 5 5 4 4 4 4 4 4 5 5 5 5 5 5 4 4 4 4 4 4 4 4 5 5 4 4 3 3 3 3 4 4 5 6 8 11 12 12 8 5 5 5 5 5 6 6 6 5 5 6 6 8 11 13 11 7 6 6 6 6 6 6 6 5 6 7 6 5 4 2 4 6 5 5 4 4 4 4 4 5 5 5 5 5 5 5 5 5 5 5 5 4 4 5 nan
nan 2 2 3 5 8 8 7 6 5 5 4 4 4 4 4 5 5 6 5 5 5 4 4 4 4 4 4 4 4 4 4 4 4 3 3 3 3 4 4 5 5 8 10 12 11 7 5 5 5 5 6 6 5 5 5 5 6 6 9 14 14 9 6 6 6 7 7 7 7 6 6 6 7 8 6 5 2 3 4 5 5 4 4 4 4 4 5 5 5 5 5 5 5 5 5 5 5 5 5 5 5 nan
nan 2 2 4 7 9 9 7 6 6 5 4 4 4 4 4 5 5 6 5 5 5 5 4 4 4 4 4 4 4 4 4 4 3 3 3 3 3 3 4 4 5 7 10 11 10 7 6 6 5 6 6 6 5 4 5 5 6 7 11 13 10 7 6 6 6 7 7 7 7 6 6 7 8 9 8 5 3 3 4 5 4 4 4 4 4 4 4 5 5 5 5 5 5 5 5 5 5 5 6 5 6 nan
nan 2 3 4 7 8 8 7 6 6 5 5 4 4 4 5 5 5 6 6 5 5 5 4 4 4 4 4 4 4 4 4 4 3 2 3 3 3 3 4 5 6 8 9 9 8 5 5 6 6 6 6 5 5 5 6 6 6 7 11 11 9 7 6 6 6 7 7 7 7 6 7 8 9 10 9 6 4 3 3 4 3 3 3 3 3 4 4 5 5 5 6 6 6 6 5 5 5 6 6 6 6 nan
nan 2 2 6 9 8 6 7 7 6 5 5 4 4 4 4 5 5 6 6 6 5 5 5 4 4 4 4 4 4 4 4 3 3 2 2 2 2 3 4 5 7 8 8 6 5 5 6 7 6 6 5 5 6 6 7 7 7 8 11 11 10 7 6 6 6 6 7 7 7 7 8 9 10 10 8 6 4 3 3 3 3 3 3 3 3 4 4 5 5 5 6 6 6 6 6 6 6 6 6 6 6 nan
nan 1 5 11 11 7 6 7 7 6 5 4 4 4 4 4 5 5 6 6 6 5 5 5 5 4 4 5 5 4 4 4 3 2 2 2 2 2 2 4 5 7 8 7 6 5 7 7 7 6 6 5 5 6 7 7 7 7 8 9 11 11 9 7 6 6 6 7 7 7 8 10 10 9 8 6 5 3 3 3 3 3 3 3 3 4 4 4 5 5 6 6 6 6 6 6 6 6 6 6 6 7 nan
nan 4 9 12 10 7 7 8 7 6 5 4 4 4 4 4 5 5 6 6 5 5 5 5 5 5 4 4 4 4 4 3 3 2 2 2 2 2 2 4 5 6 7 7 7 7 8 8 7 6 6 6 6 5 6 7 7 7 9 9 12 12 9 7 7 6 6 7 7 8 9 11 10 8 7 5 4 3 3 3 3 3 3 3 4 4 5 5 5 5 6 6 6 6 6 6 6 6 6 6 6 7 nan
nan 7 9 10 10 8 8 8 7 6 5 4 4 4 4 4 5 5 5 6 5 5 5 5 5 4 4 4 4 3 3 4 3 3 3 2 2 2 2 4 6 7 6 7 7 8 9 8 7 7 6 6 6 6 6 6 7 7 9 11 12 12 9 7 6 6 6 7 7 8 9 9 8 7 5 4 3 3 3 2 2 2 3 3 4 4 5 5 6 6 6 6 6 6 6 6 6 6 6 6 6 6 nan
nan 8 9 10 9 8 8 8 8 7 5 4 4 4 5 5 5 5 6 6 5 5 5 5 5 4 4 4 3 1 2 4 5 5 4 4 3 3 4 5 7 7 7 7 8 8 8 8 7 7 7 6 6 6 6 6 7 7 9 11 13 12 9 7 6 6 6 6 6 7 7 6 6 5 4 3 3 3 3 2 2 3 3 3 4 4 5 6 6 6 6 6 6 6 6 6 6 6 6 6 6 6 nan
nan 8 9 8 8 8 7 7 7 7 6 5 5 5 5 5 5 5 5 6 5 5 5 5 5 5 4 2 1 1 3 5 6 6 6 5 4 4 6 6 7 7 8 7 8 8 8 8 8 7 7 6 6 6 6 7 8 8 8 11 13 12 9 6 6 6 6 6 6 6 6 5 4 3 3 3 3 3 3 3 3 3 3 4 4 5 6 6 7 7 7 7 6 6 6 6 6 6 6 6 6 6 nan
nan 8 7 7 8 7 7 7 7 7 6 6 6 6 5 5 4 4 5 6 6 5 5 5 5 5 5 2 0 1 5 6 7 7 7 6 6 6 8 8 7 7 7 8 8 9 8 8 8 7 7 6 6 6 7 8 8 8 8 11 14 13 9 6 6 6 6 6 5 5 5 4 4 3 4 4 4 4 4 3 3 3 3 4 5 5 6 7 7 7 7 7 6 6 6 6 6 6 6 6 6 6 nan
nan 7 7 7 7 6 6 7 7 6 6 6 6 7 6 4 4 4 6 6 6 6 6 6 6 7 5 1 1 3 5 6 7 7 7 7 7 8 8 8 7 7 7 8 8 8 8 8 7 7 6 6 6 6 7 8 8 8 8 12 14 13 10 7 6 6 6 6 5 5 5 4 4 4 4 4 4 4 4 3 3 4 4 5 5 6 7 7 8 8 7 7 7 6 6 6 6 6 6 6 6 6 nan
nan 6 7 7 7 6 5 6 6 6 6 5 3 5 6 7 7 6 7 7 7 8 7 6 4 6 6 4 4 5 5 6 7 7 6 7 7 7 7 7 7 7 8 8 8 8 8 7 7 6 6 6 6 7 7 8 8 8 9 12 14 13 10 8 6 6 6 6 6 6 5 5 4 4 4 4 4 3 4 4 4 4 5 5 6 6 7 8 8 8 7 7 7 7 6 6 6 6 6 6 6 6 nan
nan 7 7 7 6 6 6 6 7 7 9 7 1 2 6 8 9 9 7 7 9 9 9 6 5 6 8 7 6 5 6 6 6 6 6 6 6 7 7 7 7 7 8 8 9 9 9 7 7 6 6 6 6 7 7 8 8 8 8 11 14 14 11 8 7 6 7 7 6 6 5 5 4 4 4 4 4 3 4 4 5 5 5 6 6 7 7 8 8 8 7 7 7 7 6 6 6 6 6 6 6 6 nan
nan 7 7 6 6 6 6 7 7 7 10 8 3 3 5 6 7 7 6 6 7 8 8 6 6 7 8 7 6 6 6 6 6 6 6 6 6 6 6 7 7 7 8 8 9 9 9 7 7 6 6 6 6 7 7 7 8 8 8 11 15 15 12 9 7 6 7 7 7 6 5 4 4 3 3 3 3 4 4 5 5 5 6 6 6 7 7 8 8 8 7 7 7 6 6 6 6 6 6 6 6 6 nan
nan 7 6 6 6 7 7 7 7 7 8 8 5 5 5 6 7 6 5 5 6 6 6 6 6 6 7 7 6 6 6 6 6 6 7 6 6 5 6 7 7 7 8 8 8 9 8 7 6 6 6 6 7 7 7 6 8 8 9 11 15 16 14 10 7 6 7 7 6 5 5 4 3 3 3 3 3 4 4 5 5 6 6 6 6 7 7 7 7 7 7 6 6 6 6 6 6 6 6 6 6 6 nan
nan 6 6 6 7 7 7 7 7 6 7 7 7 7 6 6 6 6 5 5 5 5 6 6 6 6 7 7 6 5 5 5 6 6 6 6 5 5 5 6 7 7 7 8 9 9 8 7 6 6 6 6 7 7 6 6 8 9 9 12 15 16 15 11 7 6 7 6 5 4 4 3 3 3 3 3 4 4 5 5 6 6 6 6 6 7 7 7 7 7 6 6 6 6 6 6 6 6 6 6 6 6 nan
nan 6 6 6 7 7 7 7 7 7 6 6 7 8 8 6 6 6 6 6 5 5 5 5 5 6 6 7 6 5 5 6 6 6 6 6 6 6 5 6 7 7 7 8 9 9 8 7 6 6 6 6 7 7 6 6 8 9 9 12 15 18 17 12 8 7 7 5 4 4 3 3 3 3 3 4 4 5 5 6 6 6 6 6 7 7 7 7 7 7 6 6 6 6 6 6 6 6 6 6 6 6 nan
nan 6 7 7 7 7 7 7 7 7 7 7 7 8 8 7 6 6 6 6 6 7 6 5 5 5 6 7 7 6 6 7 7 7 7 7 8 7 6 6 6 7 6 8 9 9 8 7 6 6 6 6 7 7 7 6 7 8 9 11 15 18 20 15 10 8 6 5 4 3 3 3 3 3 3 4 4 5 6 6 6 6 6 6 6 7 7 7 6 6 6 6 6 6 6 6 6 6 6 6 6 6 nan
nan 6 7 7 7 7 7 7 7 7 7 7 7 7 7 7 6 6 6 6 7 7 7 6 6 6 6 7 8 7 7 8 8 8 9 9 9 9 9 7 6 6 6 8 9 9 8 7 7 6 6 6 7 7 7 6 7 8 9 10 14 18 21 18 14 10 7 5 4 4 3 3 3 3 4 4 5 5 6 6 6 6 6 6 6 6 7 7 6 6 6 6 6 6 6 6 6 6 6 6 6 6 nan
nan 6 7 8 7 7 6 7 7 7 7 7 7 6 6 7 7 7 6 7 7 7 7 6 7 7 6 6 7 7 7 8 9 10 10 10 11 11 11 9 7 6 6 8 8 8 8 7 6 6 6 6 7 7 7 6 7 8 9 9 12 16 20 19 16 12 8 6 5 4 4 4 4 4 4 4 5 5 5 6 6 6 6 6 6 6 7 6 6 6 6 6 6 6 6 6 6 6 6 6 7 7 nan
nan 6 7 8 7 7 6 6 7 7 7 7 7 6 6 7 7 7 7 7 7 7 6 6 7 8 7 7 6 6 8 8 9 10 10 10 11 12 11 10 8 6 6 7 8 9 8 7 6 6 6 6 6 7 7 7 7 7 8 9 10 13 17 18 17 14 10 7 5 5 4 4 4 4 4 4 5 5 5 6 6 6 6 6 6 6 6 6 6 6 6 6 6 6 6 6 6 6 6 6 7 7 nan
nan 7 7 7 7 7 7 7 7 7 7 7 7 6 7 7 7 7 7 7 8 7 7 7 7 7 8 7 7 7 9 9 8 9 10 10 10 10 10 10 9 6 5 6 8 9 9 8 6 5 6 6 7 7 7 7 7 7 8 9 10 11 14 16 15 13 11 10 7 6 5 5 5 4 4 4 5 5 6 6 6 6 6 6 6 6 6 6 6 6 6 5 5 6 6 6 6 6 6 6 7 7 nan
nan 7 7 7 7 7 7 7 7 7 7 7 7 7 8 8 7 7 7 7 7 8 7 7 7 7 7 7 7 7 10 10 8 8 8 9 9 9 10 9 8 6 5 6 8 9 9 9 8 7 6 7 6 6 6 7 7 8 8 9 10 10 12 13 13 12 13 12 9 7 5 5 5 5 4 5 5 5 6 6 6 6 6 6 6 6 6 6 6 6 5 6 5 5 6 6 6 6 6 6 6 7 nan
nan 7 8 7 7 7 7 7 7 7 8 8 7 7 7 8 7 7 7 7 8 8 7 7 7 8 8 7 6 7 9 10 9 8 7 7 8 8 10 9 7 6 7 7 7 8 9 10 9 7 6 7 6 6 6 7 7 8 8 8 9 10 10 11 11 11 14 14 11 8 6 5 5 4 4 5 5 6 6 7 7 7 6 6 6 6 6 6 6 6 5 5 5 5 6 6 6 6 6 6 6 6 nan
nan 7 8 7 7 7 7 7 7 7 8 8 8 7 8 8 8 7 6 7 8 8 8 7 7 8 8 8 7 7 7 9 9 9 7 5 6 8 10 9 7 7 8 7 7 8 10 10 9 8 7 7 6 5 6 6 7 7 8 9 9 10 10 9 9 10 13 15 13 10 7 5 5 4 5 5 5 6 7 7 7 7 6 6 6 6 6 6 6 5 5 5 5 5 6 6 6 6 6 6 6 6 nan
nan 7 7 7 7 7 7 7 7 7 7 8 8 8 8 8 7 8 7 7 7 7 7 7 7 7 8 8 7 6 6 7 9 10 9 6 6 7 8 7 8 9 9 7 7 8 10 9 9 9 7 6 6 5 5 6 6 6 9 10 9 10 11 9 8 8 10 13 13 12 9 6 5 5 5 5 5 6 7 7 7 7 6 6 6 6 6 6 5 5 5 5 5 5 5 6 6 6 6 6 6 6 nan
nan 7 7 7 7 8 7 7 7 7 7 7 8 9 8 7 7 8 8 8 7 7 7 7 6 6 7 7 7 6 5 6 8 9 9 7 6 7 7 7 8 10 9 7 7 9 10 9 9 9 8 7 6 6 6 6 6 6 7 8 9 10 11 11 9 10 10 10 12 13 11 8 6 5 5 5 6 6 7 7 7 7 7 6 6 6 6 6 5 5 5 5 5 5 5 5 6 6 6 6 6 6 nan
nan 7 7 8 8 8 7 8 8 9 8 7 7 8 7 7 7 8 9 9 8 7 8 8 8 7 6 6 7 6 6 6 7 7 7 7 7 7 6 7 8 10 9 7 7 9 10 9 9 9 7 6 6 6 6 6 7 6 6 7 8 8 9 10 11 12 11 11 11 12 12 10 9 7 6 6 6 6 7 7 7 7 7 6 6 6 6 6 6 5 5 4 4 5 5 5 5 6 6 6 6 6 nan
nan 7 7 8 8 8 7 8 10 11 9 8 8 7 7 7 7 8 9 9 9 8 9 9 9 9 8 7 7 8 7 7 7 6 6 6 7 6 6 7 9 9 8 7 7 9 9 9 9 9 7 7 7 6 6 7 7 6 6 6 6 7 7 8 9 10 13 14 12 11 12 12 11 9 7 6 6 6 7 7 7 7 6 6 6 6 6 6 6 5 5 5 5 5 5 5 5 5 6 6 6 6 nan
nan 7 6 7 7 7 8 9 11 11 10 9 9 8 8 7 7 7 8 9 9 9 9 9 9 9 8 8 8 9 9 8 7 6 7 7 7 6 6 7 8 8 8 7 7 8 7 8 9 10 9 8 7 6 7 7 7 7 6 6 6 6 7 7 7 8 10 13 15 15 12 12 12 12 10 8 7 7 7 7 7 7 6 6 6 6 6 6 6 5 5 5 5 5 5 5 5 5 5 5 6 6 nan
nan 6 6 6 6 7 8 9 10 8 8 9 9 10 10 8 7 6 7 8 8 8 8 8 8 7 7 7 8 8 8 9 9 7 7 8 7 6 6 7 7 8 9 8 7 7 7 7 9 9 9 8 8 7 7 8 7 7 6 6 6 6 6 7 7 6 7 9 12 16 15 12 12 13 12 10 8 7 7 7 7 7 7 6 6 6 6 6 6 6 6 6 5 5 5 5 5 5 5 5 5 5 nan
nan 6 6 6 6 7 9 8 7 6 6 8 9 10 10 9 8 8 7 7 7 7 8 8 6 6 7 8 8 7 7 8 9 9 8 7 7 6 6 7 7 8 9 9 8 7 7 6 7 8 9 9 9 10 8 7 7 6 6 6 6 6 7 7 6 5 5 7 8 12 16 15 13 13 13 12 11 9 9 8 8 8 8 7 6 6 6 6 6 6 6 6 6 6 5 5 5 5 5 5 5 5 nan
nan 7 7 7 7 8 10 8 6 5 5 6 8 9 9 8 9 9 9 7 6 6 7 8 7 7 7 7 8 7 6 6 7 9 9 7 7 6 7 7 7 8 9 9 9 8 8 7 6 7 9 10 11 11 9 8 7 6 6 7 7 7 7 6 5 5 6 6 7 8 14 17 15 13 13 12 12 11 10 10 10 11 10 8 6 6 6 6 7 7 7 7 7 6 6 5 5 5 5 5 5 5 nan
nan 7 8 7 7 9 10 9 7 6 5 6 7 7 7 8 9 9 9 8 7 5 6 8 8 8 8 7 7 7 7 5 6 7 9 8 7 6 6 8 8 8 9 9 9 9 9 8 7 6 8 9 10 10 9 9 8 8 7 8 8 8 8 7 5 6 7 6 6 7 10 16 18 16 13 12 11 11 10 10 12 13 12 9 7 6 6 7 7 7 7 7 7 7 6 6 6 5 5 5 5 5 nan
nan 8 8 8 8 9 9 9 7 6 6 7 7 7 6 7 8 9 9 9 8 6 5 7 9 9 8 7 7 7 7 7 6 7 8 8 7 6 6 8 8 8 8 9 9 9 9 10 9 8 7 8 10 9 9 9 8 7 7 8 9 9 8 7 6 6 6 6 6 6 6 11 15 19 17 15 14 12 11 10 11 13 14 11 9 7 7 7 7 7 7 7 7 7 7 7 6 6 6 6 5 5 nan
nan 8 8 8 8 9 9 8 7 6 7 8 7 7 6 7 8 8 8 8 8 7 6 6 8 9 9 8 8 8 8 9 9 8 7 8 8 7 6 7 8 9 9 9 9 9 9 10 10 10 8 8 9 10 11 10 8 7 7 7 8 10 9 7 7 7 6 6 6 7 7 7 9 13 18 19 18 17 15 13 12 14 14 13 10 8 7 8 8 8 7 7 7 7 7 7 7 7 6 6 5 5 nan
nan 7 7 8 8 9 9 8 7 7 7 8 8 7 6 7 8 8 7 7 8 8 7 6 6 7 8 8 9 10 11 11 11 9 7 7 8 8 6 6 8 9 9 9 9 8 9 10 11 10 8 8 9 10 12 11 10 9 7 7 8 9 9 7 7 7 7 6 7 8 8 6 6 7 11 15 16 17 19 18 15 14 14 14 12 10 8 8 8 8 7 7 7 7 7 7 7 7 7 6 6 6 nan
nan 6 7 8 8 7 8 8 7 7 8 8 8 7 6 7 8 8 7 7 8 9 9 7 6 5 6 7 8 10 13 12 11 9 7 6 7 8 8 7 8 9 9 9 8 7 8 10 10 9 9 8 8 9 11 13 11 11 9 8 7 9 9 9 8 7 7 7 7 7 7 8 7 6 7 10 11 13 16 19 18 15 13 14 13 12 10 10 9 8 7 6 6 6 7 7 7 7 7 6 6 6 nan
nan 6 8 9 8 7 7 7 6 7 8 8 8 9 8 6 7 8 7 7 8 9 11 10 8 6 6 5 5 8 11 13 12 10 7 4 5 7 10 9 8 7 8 8 8 7 8 9 8 8 9 9 9 9 10 11 12 11 10 9 8 8 9 9 9 8 8 8 8 8 7 7 7 7 7 8 8 10 11 15 18 18 15 13 13 13 11 10 11 11 8 6 6 6 6 6 7 7 7 7 6 6 nan
nan 6 8 9 9 7 7 8 7 7 7 8 8 9 10 9 8 8 7 6 6 8 11 12 12 9 7 5 5 6 9 11 11 11 7 5 4 4 5 8 8 7 7 9 9 9 8 8 8 8 8 8 8 9 9 10 10 10 10 10 9 8 9 9 9 8 9 8 8 8 7 7 7 7 6 7 8 9 8 10 12 16 18 16 14 14 12 11 12 12 10 8 6 6 6 6 6 6 7 7 7 6 nan
nan 6 7 8 9 9 9 9 7 7 7 7 7 9 11 11 10 9 9 6 5 6 8 9 12 13 10 6 7 8 9 8 7 6 5 7 6 4 3 6 7 8 9 10 11 11 10 8 8 8 8 8 8 8 8 9 9 9 10 10 9 9 9 9 9 9 9 9 8 8 8 7 6 7 7 7 7 8 8 7 8 10 15 18 18 16 17 16 13 12 11 10 8 7 6 6 6 6 6 7 7 7 nan
nan 7 6 7 8 9 10 10 8 7 8 8 9 9 10 11 9 9 10 9 6 4 3 5 8 13 13 10 9 11 11 7 5 1 2 7 9 10 8 4 4 6 9 10 11 11 11 9 9 9 8 7 7 7 7 8 8 8 8 9 9 9 9 9 10 10 10 9 9 8 8 7 6 6 7 7 7 7 7 7 7 7 9 11 14 14 16 19 20 18 14 11 9 8 8 7 7 6 6 6 6 6 nan
nan 7 7 6 6 7 10 10 8 7 7 7 8 8 10 10 8 8 10 12 10 6 1 1 4 8 10 12 11 12 11 9 6 2 1 5 9 11 11 6 4 4 7 7 8 8 9 10 11 11 9 7 6 5 6 6 7 7 8 8 8 9 10 10 11 11 10 10 9 10 9 8 7 7 8 7 7 6 6 6 6 6 7 8 10 11 12 13 15 18 18 14 10 8 8 9 8 7 6 6 6 6 nan
nan 6 6 5 6 7 8 9 9 7 6 7 7 7 8 8 6 7 8 10 11 10 7 4 2 3 5 9 9 9 10 11 9 5 4 5 4 3 6 10 8 8 8 7 7 6 8 12 13 14 13 11 10 7 6 5 6 8 9 8 8 8 10 12 12 12 10 9 9 9 9 9 8 9 9 8 7 6 6 6 5 5 6 7 9 9 11 13 13 12 14 16 15 12 10 10 9 9 8 7 7 7 nan
nan 7 5 4 5 7 7 9 9 8 6 6 8 8 8 7 6 6 6 7 8 9 11 9 5 3 2 6 8 7 9 13 12 9 7 7 5 1 3 7 7 9 9 9 9 9 8 11 12 12 11 14 16 14 11 8 7 8 9 9 8 8 8 10 11 11 10 10 10 9 8 8 9 9 8 8 8 7 6 6 6 5 5 6 7 7 10 13 13 10 9 11 13 15 16 13 11 10 9 8 8 7 nan
nan 7 6 5 4 5 7 8 8 8 7 7 8 9 10 10 8 7 8 7 6 6 7 7 7 6 5 6 7 7 9 12 13 12 9 7 7 5 5 5 5 4 5 10 11 10 9 11 11 10 4 7 15 17 14 13 10 10 8 8 8 8 7 8 9 9 9 10 11 11 9 8 9 9 7 7 8 8 7 7 6 6 6 6 7 7 10 12 11 10 10 11 12 12 16 16 12 10 9 8 8 8 nan
nan 6 6 7 5 4 5 7 7 7 8 8 8 9 10 11 11 10 10 11 10 6 2 3 7 7 7 8 8 7 7 10 12 13 11 7 7 6 8 8 7 4 4 7 8 8 11 12 10 9 7 6 9 11 12 13 13 12 11 10 9 9 9 8 8 8 8 9 10 10 11 10 9 9 8 8 8 7 8 7 6 6 6 7 7 7 8 10 10 11 11 11 13 13 14 15 11 8 8 8 8 8 nan
nan 8 7 8 8 6 5 6 7 7 8 8 9 9 8 8 9 10 11 12 10 5 1 6 10 10 8 9 10 8 5 7 10 12 12 11 9 7 8 11 12 11 8 7 8 9 11 9 8 8 9 8 8 8 9 10 12 13 12 11 11 11 11 9 8 8 8 8 9 9 10 10 10 10 10 9 9 8 8 7 7 7 7 7 7 7 8 9 8 8 9 10 11 15 14 11 9 7 7 7 8 8 nan
nan 8 8 9 9 8 6 5 7 7 7 8 8 9 7 6 6 9 12 12 10 8 9 11 11 10 9 9 9 9 7 6 7 9 12 13 13 11 9 10 12 14 14 11 11 11 10 8 8 6 6 5 6 7 8 9 11 11 11 11 11 11 11 10 9 8 7 7 7 8 9 10 10 10 10 10 10 10 9 8 8 7 7 7 7 7 7 8 8 6 7 8 9 13 13 9 7 7 7 8 8 10 nan
nan 6 8 9 9 9 7 6 6 6 7 8 7 8 7 6 8 10 12 13 13 15 17 15 11 9 8 6 4 6 8 7 7 7 9 11 12 14 14 10 8 8 12 12 11 9 8 7 7 5 5 4 3 3 6 9 9 9 9 10 11 11 10 9 9 8 8 8 8 8 7 8 9 9 9 10 11 11 10 10 9 8 7 7 8 8 9 10 9 8 9 9 8 10 10 9 7 7 7 9 10 11 nan
nan 6 7 8 9 8 8 7 6 6 6 7 6 6 7 8 11 12 11 11 12 14 14 13 12 11 12 8 4 4 8 9 8 6 7 8 9 10 14 13 9 7 7 7 8 9 10 11 9 7 6 6 3 3 3 5 7 8 9 9 10 10 10 10 10 10 9 8 8 8 7 6 7 8 8 9 10 10 11 10 9 9 8 7 8 9 9 10 12 12 12 12 12 11 9 8 7 8 8 10 11 12 nan
nan nan nan nan nan nan nan nan nan nan nan nan nan nan nan nan nan nan nan nan nan nan nan nan nan nan nan nan nan nan nan nan nan nan nan nan nan nan nan nan nan nan nan nan nan nan nan nan nan nan nan nan nan nan nan nan nan nan nan nan nan nan nan nan nan nan nan nan nan nan nan nan nan nan nan nan nan nan nan nan nan nan nan nan nan nan nan nan nan nan nan nan nan nan nan nan nan nan nan nan nan nan nan
CAPE
74 56 30 15 9 9 3 nan nan nan nan 2 1 1 nan nan nan nan nan nan nan nan nan nan nan nan nan 1 2 2 4 10 15 15 18 14 14 13 8 2 2 nan nan nan nan nan nan nan nan nan nan nan nan nan nan nan nan nan nan nan nan nan nan 162 214 214 122 111 154 154 274 370 413 413 565 728 728 753 576 555 555 716 774 729 804 804 870 784 648 648 551 519 556 556 586 581 581 553 604 745 745 830 925
65 35 25 15 5 5 nan nan nan nan 1 3 0 0 nan nan nan nan nan nan nan nan nan nan nan nan 0 3 7 7 8 17 24 24 24 19 19 14 9 1 1 nan nan nan nan nan nan nan nan nan nan nan nan nan nan nan nan nan nan nan nan nan nan 97 156 156 120 111 127 127 171 264 413 413 490 623 623 636 587 481 481 573 753 812 841 841 787 670 522 522 417 399 425 425 455 458 458 460 453 585 585 725 813
46 21 12 5 0 0 nan nan 1 1 1 2 0 0 nan nan nan nan nan nan nan nan nan 1 3 3 4 8 13 13 16 27 30 30 25 19 19 14 7 0 0 nan nan nan nan nan nan nan nan nan nan nan nan nan nan nan nan nan nan nan nan nan nan 80 120 120 124 111 120 120 110 164 344 344 487 513 513 538 571 471 471 515 662 721 697 697 690 503 403 403 327 311 314 314 334 392 392 393 418 521 521 625 712
25 11 4 0 nan nan nan 1 3 3 3 1 nan nan nan nan nan nan nan nan nan nan 1 4 10 10 11 16 22 22 29 28 26 26 24 15 15 10 2 nan nan nan nan nan nan nan nan nan nan nan nan nan nan nan nan nan nan nan nan nan nan nan 4 51 82 82 105 137 147 147 117 96 260 260 393 476 476 478 526 468 468 483 526 565 513 513 490 377 317 317 246 221 232 232 255 303 303 359 351 422 422 460 515
18 7 1 1 0 0 3 10 12 12 7 1 0 0 nan nan nan nan nan nan nan 0 2 10 18 18 19 25 32 32 34 32 25 25 23 13 13 5 1 nan nan nan nan nan nan nan nan nan nan nan nan nan nan nan nan nan nan nan nan nan nan nan 42 57 62 62 78 115 150 150 134 74 122 122 311 450 450 410 436 464 464 436 416 437 409 409 392 283 235 235 173 146 132 132 157 199 199 222 263 301 301 286 333
14 5 3 3 7 7 18 26 23 23 14 5 0 0 nan nan nan nan nan nan nan 1 6 13 22 22 32 35 37 37 34 36 24 24 21 8 8 1 nan nan nan nan nan nan nan nan nan nan nan nan nan nan nan nan nan nan nan nan nan nan nan 0 62 65 63 63 60 83 127 127 112 66 75 75 210 416 416 416 345 367 367 322 316 271 262 262 265 227 173 173 147 94 90 90 81 94 94 105 116 125 125 136 149
13 10 12 13 28 28 39 42 29 29 22 16 8 8 0 nan nan nan nan 1 1 3 16 25 30 30 32 39 42 42 39 36 28 28 13 3 3 nan nan nan nan nan nan nan nan nan nan nan nan nan nan nan nan nan nan nan nan nan nan nan nan 53 74 70 67 67 64 61 79 79 85 53 42 42 111 319 319 446 287 260 260 228 141 121 113 113 102 91 92 92 90 72 51 51 45 38 38 34 35 43 43 48 78
20 18 23 38 63 63 67 61 46 46 35 26 15 15 5 1 1 nan nan 4 4 10 22 31 36 36 38 39 37 37 39 32 19 19 6 nan nan nan nan nan nan nan nan nan nan nan nan nan nan nan nan nan nan nan nan nan nan nan nan nan nan 23 68 66 57 57 71 70 69 69 69 46 18 18 73 220 220 400 298 162 162 114 82 55 45 45 37 36 38 38 42 32 24 24 19 18 18 14 5 2 2 7 24
29 33 45 64 116 116 92 79 62 62 49 38 23 23 10 4 4 1 2 7 7 19 32 48 49 49 40 41 43 43 40 32 16 16 2 nan nan nan nan nan nan nan nan nan nan nan nan nan nan nan nan nan nan nan nan nan nan nan nan nan nan nan 58 46 56 56 66 66 74 74 66 39 15 15 43 127 127 343 257 105 105 66 48 27 17 17 15 15 11 11 9 9 8 8 5 4 4 6 1 nan nan nan 2
39 44 62 90 188 188 119 92 75 75 62 52 31 31 18 9 9 5 3 11 11 23 42 59 56 56 47 43 44 44 41 28 10 10 0 nan nan nan nan nan nan nan nan nan nan nan nan nan nan nan nan nan nan nan nan nan nan nan nan nan nan 12 44 51 55 55 62 55 69 69 58 32 14 14 27 88 88 238 134 71 71 50 30 20 6 6 3 1 nan nan 1 1 0 0 nan nan nan nan nan nan nan nan nan
44 56 75 105 150 150 135 97 87 87 74 54 39 39 23 17 17 9 8 13 13 26 50 62 60 60 52 49 50 50 41 24 5 5 nan nan nan nan nan nan nan nan nan nan nan nan nan nan nan nan nan nan nan nan nan nan nan nan nan nan nan 38 49 48 65 65 60 52 47 47 44 28 13 13 24 77 77 131 88 44 44 37 16 8 8 8 2 nan nan nan nan nan nan nan nan nan nan nan nan nan nan nan nan
60 80 95 119 149 149 135 109 97 97 78 58 39 39 28 20 20 15 14 19 19 36 54 66 59 59 51 53 45 45 36 17 3 3 nan nan nan nan nan nan nan nan nan nan nan nan nan nan nan nan nan nan nan nan nan nan nan nan nan nan nan 26 58 60 69 69 64 50 35 35 32 26 19 19 34 68 68 82 61 38 38 24 11 3 2 2 1 0 0 0 nan nan nan nan nan nan nan nan nan nan nan nan nan
87 110 133 103 134 134 166 122 102 102 83 60 40 40 26 23 23 19 23 26 26 44 66 72 64 64 51 52 48 48 31 17 0 0 nan nan nan nan nan nan nan nan nan nan nan nan nan nan nan nan nan nan nan nan nan nan nan nan nan 14 14 27 59 70 74 74 61 55 46 46 37 28 40 40 58 66 66 51 39 27 27 14 4 1 nan nan nan nan nan nan nan nan nan nan nan nan nan nan nan nan nan nan nan
109 127 103 109 123 123 166 134 108 108 87 59 38 38 26 22 22 25 28 33 33 50 73 80 61 61 57 52 44 44 31 14 0 0 nan nan nan nan nan nan nan nan nan nan nan nan nan nan nan nan nan nan nan nan nan nan nan nan nan 8 8 40 66 75 70 70 55 60 60 60 52 49 67 67 70 51 51 38 31 19 19 9 1 nan nan nan nan nan nan nan nan nan nan nan nan nan nan nan nan nan nan nan nan
98 47 50 93 124 124 169 140 112 112 87 64 43 43 29 26 26 27 26 33 33 55 77 85 67 67 63 58 44 44 28 15 nan nan nan nan nan nan nan nan nan nan nan nan nan nan nan nan nan nan nan nan nan nan nan nan nan nan nan 4 4 38 71 76 64 64 52 65 80 80 94 79 76 76 68 40 40 29 22 14 14 5 2 0 nan nan nan nan nan nan nan nan nan nan 0 0 0 nan nan nan nan nan nan
9 4 26 93 125 125 157 144 122 122 97 69 52 52 41 34 34 31 32 40 40 55 77 86 73 73 65 61 43 43 35 21 nan nan nan nan nan nan nan nan nan nan nan nan nan nan nan nan nan nan nan nan nan nan nan nan nan nan nan 7 7 42 81 83 63 63 44 85 145 145 175 140 82 82 58 35 35 23 17 11 11 5 2 1 0 0 nan nan nan nan nan nan nan nan 1 1 1 0 0 nan nan nan nan
nan nan 11 97 126 126 152 155 134 134 101 84 74 74 53 39 39 36 40 44 44 61 73 81 73 73 65 52 45 45 0 nan nan nan nan nan nan nan nan nan nan nan nan nan nan nan nan nan nan nan nan nan nan nan nan nan nan nan 0 9 9 51 88 92 68 68 50 109 214 214 212 135 77 77 47 30 30 19 14 8 8 3 1 nan nan nan nan nan nan nan nan nan nan nan 0 0 0 1 0 nan nan nan nan
nan nan 77 98 127 127 150 160 153 153 118 99 88 88 65 49 49 43 44 49 49 66 76 78 71 71 59 43 4 4 nan nan nan nan nan nan nan nan nan nan nan nan nan nan nan nan nan nan nan nan nan nan nan nan nan nan nan nan 0 13 13 64 103 97 72 72 67 130 191 191 170 117 69 69 39 24 24 19 13 7 7 2 0 nan nan nan nan nan nan nan nan nan nan nan 0 0 0 0 0 nan nan 0 0
nan 22 64 102 124 124 145 160 159 159 143 121 103 103 78 56 56 53 54 63 63 69 76 73 66 66 56 34 nan nan nan nan nan nan nan nan nan nan nan nan nan nan nan nan nan nan nan nan nan nan nan nan nan nan nan nan nan nan nan 14 14 66 115 103 78 78 69 90 131 131 132 80 50 50 30 20 20 14 8 3 3 0 nan nan nan nan nan nan nan nan nan nan nan nan 1 1 1 nan nan nan nan nan 0
nan 15 62 82 97 97 108 124 133 133 133 140 96 96 78 79 79 79 99 78 78 69 75 73 58 58 32 nan nan nan nan nan nan nan nan nan nan nan nan nan nan nan nan nan nan nan nan nan nan nan nan nan nan nan nan nan nan 58 12 36 36 87 130 122 97 97 72 74 80 80 57 34 15 15 15 11 11 4 1 nan nan nan nan nan nan nan nan nan nan nan nan nan 0 0 0 0 0 nan nan nan nan nan nan
nan nan 24 60 72 72 47 43 63 63 76 125 5 5 nan 4 4 53 67 3 3 30 73 30 nan nan nan nan nan nan nan nan nan nan nan nan nan nan nan nan nan nan nan nan nan nan nan nan nan nan nan nan nan nan nan nan nan 132 31 52 52 99 137 137 103 103 84 86 88 88 60 23 12 12 9 5 5 1 nan nan nan nan nan nan nan nan nan nan nan nan nan nan 0 0 0 nan nan nan nan nan nan nan nan
nan nan 16 33 29 29 nan nan 0 0 9 105 nan nan nan nan nan nan nan nan nan nan nan nan nan nan nan nan nan nan nan nan nan nan nan nan nan nan nan nan nan nan nan nan nan nan nan nan nan nan nan nan nan nan nan 76 76 108 48 81 81 110 147 141 115 115 98 100 95 95 56 20 10 10 6 3 3 0 nan nan nan nan nan nan nan nan nan nan nan nan nan nan nan nan nan 0 0 nan nan nan nan nan nan
nan nan 7 24 10 10 nan nan nan nan nan 33 nan nan nan nan nan nan nan nan nan nan nan nan nan nan nan nan nan nan nan nan nan nan nan nan nan nan nan nan nan nan nan nan nan nan nan nan nan nan nan nan nan nan nan 26 26 97 81 99 99 114 148 153 135 135 119 111 91 91 47 16 8 8 5 2 2 nan nan nan nan nan nan nan nan nan nan nan nan nan nan nan nan nan 0 nan nan nan nan nan nan nan nan
nan nan nan 3 nan nan nan nan nan nan nan nan nan nan nan nan nan nan nan nan nan nan nan nan nan nan nan nan nan nan nan nan nan nan nan nan nan nan nan nan nan nan nan nan nan nan nan nan nan nan nan nan nan nan nan 0 0 102 117 112 112 126 159 183 150 150 131 113 94 94 44 10 8 8 3 1 1 nan nan nan nan nan nan nan nan nan nan nan nan nan nan nan 0 0 0 nan nan nan nan nan nan nan nan
nan nan nan nan nan nan nan nan nan nan nan nan nan nan nan nan nan nan nan nan nan nan nan nan nan nan nan nan nan nan nan nan nan nan nan nan nan nan nan nan nan nan nan nan nan nan nan nan nan nan nan nan nan nan nan nan nan 77 116 100 100 125 173 185 165 165 157 126 89 89 42 9 6 6 3 0 0 nan nan nan nan nan nan nan nan nan nan nan nan nan nan nan nan nan nan nan nan nan nan nan nan nan nan
nan nan nan nan nan nan nan nan nan nan nan nan nan nan nan nan nan nan nan nan nan nan nan nan nan nan nan nan nan nan nan nan nan nan nan nan nan nan nan nan nan nan nan nan nan nan nan nan nan nan nan nan nan nan nan nan nan 33 77 110 110 165 241 202 181 181 160 133 88 88 41 8 6 6 3 0 0 nan nan nan nan nan nan nan nan nan nan nan nan nan nan nan nan nan nan nan nan nan nan nan nan nan nan
nan nan nan nan nan nan nan nan nan nan nan nan nan nan nan nan nan nan nan nan nan nan nan nan nan nan nan nan nan nan nan nan nan nan nan nan nan nan nan nan nan nan nan nan nan nan nan nan nan nan nan nan nan nan nan nan nan nan 29 106 106 223 328 239 179 179 190 136 93 93 47 10 4 4 2 0 0 nan nan nan nan nan nan nan nan nan nan nan nan nan nan nan nan nan nan nan nan nan nan nan nan nan nan
nan nan nan nan nan nan nan nan nan nan nan nan nan nan nan nan nan nan nan nan nan nan nan nan nan nan nan nan nan nan nan nan nan nan nan nan nan nan nan nan nan nan nan nan nan nan nan nan nan nan nan nan nan nan nan nan nan nan 3 61 61 164 327 353 196 196 188 136 95 95 51 15 4 4 1 nan nan nan nan nan nan nan nan nan nan nan nan nan nan nan nan nan nan nan nan nan nan nan nan nan nan nan 0
nan nan nan nan nan nan nan nan 3 3 2 nan nan nan nan nan nan nan nan nan nan nan nan nan nan nan nan nan nan nan nan nan nan nan nan nan nan nan nan nan nan nan nan nan nan nan nan nan nan nan nan nan nan nan nan nan nan nan nan 24 24 99 282 488 255 255 185 136 102 102 59 18 4 4 0 nan nan nan nan nan nan nan nan nan nan nan nan nan nan nan nan nan nan nan nan nan nan nan nan nan nan nan 1
nan nan nan nan nan nan nan nan 0 0 5 3 2 2 nan nan nan nan nan nan nan nan nan nan nan nan nan nan nan nan nan nan nan nan nan nan nan nan nan nan nan nan nan nan nan nan nan nan nan nan nan nan nan nan nan nan nan nan nan nan nan 43 160 404 297 297 171 136 102 102 59 20 3 3 0 nan nan nan nan nan nan nan nan nan nan nan nan nan nan nan nan nan nan nan nan nan nan nan nan nan nan 0 2
nan nan nan nan nan nan nan nan nan nan nan 6 5 5 nan nan nan nan nan nan nan nan nan nan nan nan nan nan nan nan nan nan nan nan nan nan nan nan nan nan nan nan nan nan nan nan nan nan nan nan nan nan nan nan nan nan nan nan nan nan nan 4 84 221 371 371 225 131 89 89 60 21 2 2 nan nan nan nan nan nan nan nan nan nan nan nan nan nan 0 0 nan nan nan nan nan nan nan nan nan nan nan 1 3
nan nan nan nan nan nan nan nan nan nan nan nan 4 4 nan nan nan nan nan nan nan nan nan nan nan nan nan nan nan nan nan nan nan nan nan nan nan nan nan nan nan nan nan nan nan nan nan nan nan nan nan nan nan nan nan nan nan nan nan nan nan nan 23 105 275 275 226 126 84 84 56 23 1 1 nan nan nan nan nan nan nan nan nan nan 0 0 0 nan 0 0 nan nan nan nan nan nan nan nan nan nan nan 0 3
nan nan nan nan nan nan nan nan nan nan nan nan nan nan nan nan nan nan nan nan nan nan nan nan nan nan nan nan nan nan nan nan nan nan nan nan nan nan nan nan nan nan nan nan nan nan nan nan nan nan nan nan nan nan nan nan nan nan nan nan nan nan nan 38 125 125 161 122 79 79 45 20 1 1 nan nan nan nan nan nan nan nan nan nan 0 0 1 0 0 0 0 nan nan nan nan nan nan nan nan nan nan 0 3
nan nan nan nan nan nan nan nan nan nan nan nan nan nan nan nan nan nan nan nan nan nan nan nan nan nan nan nan nan nan nan nan nan nan nan nan nan nan nan nan nan nan nan nan nan nan nan nan nan nan nan nan nan nan nan nan nan nan nan nan nan nan nan 3 40 40 87 103 74 74 41 18 0 0 nan nan nan nan nan nan nan nan nan 0 1 1 1 1 1 1 1 nan nan nan nan nan nan nan nan nan nan 0 1
nan nan nan nan nan nan nan nan nan nan nan nan nan nan nan nan nan nan nan nan nan nan nan nan nan nan nan nan nan nan nan nan nan nan nan nan nan nan nan nan nan nan nan nan nan nan nan nan nan nan nan nan nan nan nan nan nan nan nan nan nan nan nan nan 5 5 25 72 65 65 27 11 nan nan nan nan nan nan nan nan nan nan 0 1 2 2 2 2 2 2 1 0 nan nan nan nan nan nan nan nan nan nan 1
nan nan nan nan nan nan nan nan nan nan nan nan nan nan nan nan nan nan nan nan nan nan nan nan nan nan nan nan nan nan nan nan nan nan nan nan nan nan nan nan nan nan nan nan nan nan nan nan nan nan nan nan nan nan nan nan nan nan nan nan nan nan nan nan nan nan 2 28 52 52 40 6 nan nan nan nan nan nan nan nan nan 0 1 2 4 4 4 3 2 2 1 1 nan nan nan nan nan nan nan nan nan nan nan
nan nan nan nan nan nan nan nan nan nan nan nan nan nan nan nan nan nan nan nan nan nan nan nan nan nan nan nan nan nan nan nan nan nan nan nan nan nan nan nan nan nan nan nan nan nan nan nan nan nan nan nan nan nan nan nan nan nan nan nan nan nan nan nan nan nan nan 9 27 27 50 12 nan nan nan nan nan nan nan nan nan 2 4 5 5 5 5 4 2 2 1 1 1 1 0 0 0 nan nan nan nan nan nan
nan nan nan nan nan nan nan nan nan nan nan nan nan nan nan nan nan nan nan nan nan nan nan nan nan nan nan nan nan nan nan nan nan nan nan nan nan nan nan nan nan nan nan nan nan nan nan nan nan nan nan nan nan nan nan nan nan nan nan nan nan nan nan nan nan nan nan nan 17 17 45 37 0 0 nan nan nan nan nan 0 0 3 6 7 6 6 6 5 3 3 2 1 1 1 1 0 0 nan nan nan nan nan nan
nan nan nan nan nan nan nan nan nan nan nan nan nan nan nan nan nan nan nan nan nan nan nan nan nan nan nan nan nan nan nan nan nan nan nan nan nan nan nan nan nan nan nan nan nan nan nan nan nan nan nan nan nan nan nan nan nan nan nan nan nan nan nan nan nan nan nan nan nan nan 26 37 11 11 nan nan nan nan nan 1 1 3 6 7 5 5 5 5 4 4 2 1 2 2 2 1 1 0 nan nan nan nan nan
nan nan nan nan nan nan nan nan nan nan nan nan nan nan nan nan nan nan nan nan nan nan nan nan nan nan nan nan nan nan nan nan nan nan nan nan nan nan nan nan nan nan nan nan nan nan nan nan nan nan nan nan nan nan nan nan nan nan nan nan nan nan nan nan nan nan nan nan nan nan 6 17 22 22 nan nan nan nan nan 0 0 3 5 6 5 5 3 4 4 4 3 2 2 2 2 2 2 1 nan nan nan nan nan
nan nan nan nan nan nan nan nan nan nan nan nan nan nan nan nan nan nan nan nan nan nan nan nan nan nan nan nan nan nan nan nan nan nan nan nan nan nan nan nan nan nan nan nan nan nan nan nan nan nan nan nan nan nan nan nan nan nan nan nan nan nan nan nan nan nan nan nan nan nan nan 3 8 8 2 nan nan nan nan 0 0 2 3 3 3 3 2 3 4 4 4 4 4 4 3 2 2 1 nan nan nan nan nan
nan nan nan nan nan nan nan nan nan nan nan nan nan nan nan nan nan nan nan nan nan nan nan nan nan nan nan nan nan nan nan nan nan nan nan nan nan nan nan nan nan nan nan nan nan nan nan nan nan nan nan nan nan nan nan nan nan nan nan nan nan nan nan nan nan nan nan nan nan nan nan nan nan nan nan 0 0 0 0 2 2 2 1 1 1 1 1 1 2 2 4 4 5 5 5 3 3 2 1 nan nan nan nan
nan nan nan nan nan nan nan nan nan nan nan nan nan nan nan nan nan nan nan nan nan nan nan nan nan nan nan nan nan nan nan nan nan nan nan nan nan nan nan nan nan nan nan nan nan nan nan nan nan nan nan nan nan nan nan nan nan nan nan nan nan nan nan nan nan nan nan nan nan nan nan nan nan nan nan nan nan 0 1 1 1 3 1 nan nan nan nan nan 0 0 2 3 5 5 6 6 6 4 2 0 0 nan nan
nan nan nan nan nan nan nan nan nan nan nan nan nan nan nan nan nan nan nan nan nan nan nan nan nan nan nan nan nan nan nan nan nan nan nan nan nan nan nan nan nan nan nan nan nan nan nan nan nan nan nan nan nan nan nan nan nan nan nan nan nan nan nan nan nan nan nan nan nan nan nan nan nan nan nan nan nan 0 0 nan nan 0 0 nan nan nan nan nan nan nan 1 2 3 3 4 6 6 6 3 1 1 nan nan
nan nan nan nan nan nan nan nan nan nan nan nan nan nan nan nan nan nan nan nan nan nan nan nan nan nan nan nan nan nan nan nan nan nan nan nan nan nan nan nan nan nan nan nan nan nan nan nan nan nan nan nan nan nan nan nan nan nan nan nan nan nan nan nan nan nan nan nan nan nan nan nan nan nan nan nan nan nan nan nan nan nan 0 nan nan nan nan nan nan nan 0 1 1 1 2 4 4 6 4 1 1 0 nan
nan nan nan nan nan nan nan nan nan nan nan nan nan nan nan nan nan nan nan nan nan nan nan nan nan nan nan nan nan nan nan nan nan nan nan nan nan nan nan nan nan nan nan nan nan nan nan nan nan nan nan nan nan nan nan nan nan nan nan nan nan nan nan nan nan nan nan nan nan nan nan nan nan nan nan nan nan nan nan nan nan nan nan nan nan nan nan nan nan nan nan nan nan nan nan 1 1 4 4 2 2 0 nan
nan nan nan nan nan nan nan nan nan nan nan nan nan nan nan nan nan nan nan nan nan nan nan nan nan nan nan nan nan nan nan nan nan nan nan nan nan nan nan nan nan nan nan nan nan nan nan nan nan nan nan nan nan nan nan nan nan nan nan nan nan nan nan nan nan nan nan nan nan nan nan nan nan nan nan nan nan nan nan nan nan nan nan nan nan nan nan nan nan nan nan nan nan nan nan nan nan 1 3 2 2 0 nan
nan nan nan nan nan nan nan nan nan nan nan nan nan nan nan nan nan nan nan nan nan nan nan nan nan nan nan nan nan nan nan nan nan nan nan nan nan nan nan nan nan nan nan nan nan nan nan nan nan nan nan nan nan nan nan nan nan nan nan nan nan nan nan nan nan nan nan nan nan nan nan nan nan nan nan nan nan nan nan nan nan nan nan nan nan nan nan nan nan nan nan nan nan nan nan nan nan nan 1 1 1 0 nan
nan nan nan nan nan nan nan nan nan nan nan nan nan nan nan nan nan nan nan nan nan nan nan nan nan nan nan nan nan nan nan nan nan nan nan nan nan nan nan nan nan nan nan nan nan nan nan nan nan nan nan nan nan nan nan nan nan nan nan nan nan nan nan nan nan nan nan nan nan nan nan nan nan nan nan nan nan nan nan nan nan nan nan nan nan nan nan nan nan nan nan nan nan nan nan nan nan nan nan 0 0 0 0
nan nan nan nan nan nan nan nan nan nan nan nan nan nan nan nan nan nan nan nan nan nan nan nan nan nan nan nan nan nan nan nan nan nan nan nan nan nan nan nan nan nan nan nan nan nan nan nan nan nan nan nan nan nan nan nan nan nan nan nan nan nan nan nan nan nan nan nan nan nan nan nan nan nan nan nan nan nan nan nan nan nan nan nan nan nan nan nan nan nan nan nan nan nan nan nan nan nan nan nan nan nan 0
nan nan nan nan nan nan nan nan nan nan nan nan nan nan nan nan nan nan nan nan nan nan nan nan nan nan nan nan nan nan nan nan nan nan nan nan nan nan nan nan nan nan nan nan nan nan nan nan nan nan nan nan nan nan nan nan nan nan nan nan nan nan nan nan nan nan nan nan nan nan nan nan nan nan nan nan nan nan nan nan nan nan nan nan nan nan nan nan nan nan nan nan nan nan nan nan nan nan nan nan nan nan nan
nan nan nan nan nan nan nan nan nan nan nan nan nan nan nan nan nan nan nan nan nan nan nan nan nan nan nan nan nan nan nan nan nan nan nan nan nan nan nan nan nan nan nan nan nan nan nan nan nan nan nan nan nan nan nan nan nan nan nan nan nan nan nan nan nan nan nan nan nan nan nan nan nan nan nan nan nan nan nan nan nan nan nan nan nan nan nan nan nan nan nan nan nan nan nan nan nan nan nan nan nan nan nan
nan nan nan nan nan nan nan nan nan nan nan nan nan nan nan nan nan nan nan nan nan nan nan nan nan nan nan nan nan nan nan nan nan nan nan nan nan nan nan nan nan nan nan nan nan nan nan nan nan nan nan nan nan nan nan nan nan nan nan nan nan nan nan nan nan nan nan nan nan nan nan nan nan nan nan nan nan nan nan nan nan nan nan nan nan nan nan nan nan nan nan nan nan nan nan nan nan nan nan nan nan nan nan
nan nan nan nan nan nan nan nan nan nan nan nan nan nan nan nan nan nan nan nan nan nan nan nan nan nan nan nan nan nan nan nan nan nan nan nan nan nan nan nan nan nan nan nan nan nan nan nan nan nan nan nan nan nan nan nan nan nan nan nan nan nan nan nan nan nan nan nan nan nan nan nan nan nan nan nan nan nan nan nan nan nan nan nan nan nan nan nan nan nan nan nan nan nan nan nan nan nan nan nan nan nan nan
nan nan nan nan nan nan nan nan nan nan nan nan 1 1 1 nan nan nan nan nan nan nan nan nan nan nan nan nan nan nan nan nan nan nan nan nan nan nan nan nan nan nan nan nan nan nan nan nan nan nan nan nan nan nan nan nan nan nan nan nan nan nan nan nan nan nan nan nan nan nan nan nan nan nan nan nan nan nan nan nan nan nan nan nan nan nan nan nan nan nan nan nan nan nan nan nan nan nan nan nan nan nan nan
nan nan nan nan nan nan 0 nan nan nan nan nan 1 1 3 0 0 nan nan nan nan nan nan nan nan nan nan nan nan nan nan nan nan nan nan nan nan nan nan nan nan nan nan nan nan nan nan nan nan nan nan nan nan nan nan nan nan nan nan nan nan nan nan nan nan nan nan nan nan nan nan nan nan nan nan nan nan nan nan nan nan nan nan nan nan nan nan nan nan nan nan nan nan nan nan nan nan nan nan nan nan nan nan
2 nan nan nan nan nan 0 nan nan nan nan nan 0 0 2 0 0 nan nan nan nan nan nan nan nan nan nan nan nan nan nan nan nan nan nan nan nan nan nan nan nan nan nan nan nan nan nan nan nan nan nan nan nan nan nan nan nan nan nan nan nan nan nan nan nan nan nan nan nan nan nan nan nan nan nan nan nan nan nan nan nan nan nan nan nan nan nan nan nan nan nan nan nan nan nan nan nan nan nan nan nan nan nan
6 6 nan nan nan nan 1 7 nan nan 0 nan nan nan 2 14 14 17 nan nan nan nan nan nan nan nan nan nan nan nan nan nan nan nan nan nan nan nan nan nan nan nan nan nan nan nan nan nan nan nan nan nan nan nan nan nan nan nan nan nan nan nan nan nan nan nan nan nan nan nan nan nan nan nan nan nan nan nan nan nan nan nan nan nan nan nan nan nan nan nan nan nan nan nan nan nan nan nan nan nan nan nan nan
1 4 0 1 0 0 0 5 3 3 0 nan nan nan 7 46 46 29 nan nan nan nan nan nan nan nan nan nan nan nan nan nan nan nan nan nan nan nan nan nan nan nan nan nan nan nan nan nan nan nan nan nan nan nan nan nan nan nan nan nan nan nan nan nan nan nan nan nan nan nan nan nan nan nan nan nan nan nan nan nan nan nan nan nan nan nan nan nan nan nan nan nan nan nan nan nan nan nan nan nan nan nan nan
1 1 1 nan nan nan 2 4 1 1 2 nan nan nan 17 87 87 0 nan nan nan nan nan nan nan nan nan nan nan nan nan nan nan nan nan nan nan nan nan nan nan nan nan nan nan nan nan nan nan nan nan nan nan nan nan nan nan nan nan nan nan nan nan nan nan nan nan nan nan nan nan nan nan nan nan nan nan nan nan nan nan nan nan nan nan nan nan nan nan nan nan nan nan nan nan nan nan nan nan nan nan nan nan
nan 0 4 4 4 4 8 7 11 11 3 nan 72 72 16 5 5 nan nan nan nan nan nan nan nan nan nan nan nan nan nan nan nan nan nan nan nan nan nan nan nan nan nan nan nan nan nan nan nan nan nan nan nan nan nan nan nan nan nan nan nan nan nan nan nan nan nan nan nan nan nan nan nan nan nan nan nan nan nan nan nan nan nan nan nan nan nan nan nan nan nan nan nan nan nan nan nan nan nan nan nan nan nan